THOR ALTAIR DEB, 1931

Orbit data source: Space-Track

THOR ALTAIR DEB, 1931 is space debris in SSO originally from a launch on Fri, 10 Sep 1965 UTC launched from the Air Force Western Test Range (AFWTR). Debris objects in space refer to the collection of defunct objects orbiting the Earth. Examples of debris include non-operational satellites, rocket bodies, and fragments generated from explosions, collisions, or faulty payload assembly.

Loading next visibility...
THOR ALTAIR DEB details
Identifier
1931, 1965-072E
Orbit
SSO
Last TLE update9 hours ago
Origin
Flag of USUSAF SSD (US)
ManufacturerUnknown
MissionSpacecraft
Bus & MotorUnknown
MassUnknown
Launch date (UTC)
1965-09-10 (59 years ago)
Launch vehicleUnknown
Launch site
Air Force Western Test Range (AFWTR)
Object type
Payload
Rocket body
Debris
Shape & HBRUnknown
Radar Cross SectionSmall (<0.1 m²)

Expand to show TLE details & history

TLE from 9 hours ago
0 THOR ALTAIR DEB
1  1931U 65072E   24356.27649799  .00001789  00000-0  48481-3 0  9990
2  1931  99.0399 357.0458 0240193 224.8394 133.3160 14.33442664135438
Epoch: 2024-12-21T06:38Z
Definitive object data (Epoch: 2024-12-21T06:38:09.426Z)
Latitude-0.00003°
Longitude167.17655°
Altitude903.28 km
Speed7.338 km/s
True Right ascension23h 48m 10s
True Declination0° 00' 00"
Sunlit
Object was in daylight at TLE epoch
Visualization TLE readout
Latitude42.94799°
Longitude159.07849°
Altitude958.521 km
Speed7.287 km/s
Apparent Right ascension00h 41m 18s
Apparent Declination5° 26' 47"
Sunlit
Object is in daylight
Visualization observer readout
Local Sidereal Time14:15:39
Azimuth31.182° NE
Elevation-39.704°
Doppler factor1
Orbital elements
Apogee altitude949.272 km
Perigee altitude605.53 km
Semi-major axis7,155.538 km
Eccentricity0.0240193
Inclination99.0399°
RAAN357.0458°
Arg. of periapsis224.8394°
True anomaly135.27777°
Mean anomaly133.316°
Eccentric anomaly134.30092°
Mean motion3.58575 °/min
BSTAR0.00048481
Orbital period100.4 mins
Loading maneuver chart data...
Loading historical data...
Loading historical data...
Loading historical data...
Loading historical data...
Loading historical data...
Loading historical data...
Loading historical data...

THOR ALTAIR DEB Visibility forecast

Observer location: undefined°, undefined

Span
Click to sort rows by Start time (UTC) header in descending order
Start Az.
Max El. time (UTC)
Max El. Az.
Max El.
End time (UTC)
End Az.
10 mins2024-12-21 23:30:23.640Z136.431° SSE2024-12-21 23:35:23.640Z79.399° E33.683°2024-12-21 23:40:23.640Z4.185° NNE
8 mins2024-12-22 01:11:23.640Z214.525° SW2024-12-22 01:15:23.640Z270.829° WNW26.543°2024-12-22 01:19:23.640Z319.286° NNW
8 mins2024-12-22 13:23:23.640Z8.994° NNE2024-12-22 13:27:23.640Z298.239° NW43.795°2024-12-22 13:31:23.640Z203.602° SW
|